Time,TemperatureF,DewpointF,PressureIn,WindDirection,WindDirectionDegrees,WindSpeedMPH,WindSpeedGustMPH,Humidity,HourlyPrecipIn,Conditions,Clouds,dailyrainin,SoftwareType,DateUTC
2013-06-14 00:00:00,66.6,66.0,29.73,NNE,22,0.0,-999.0,98,-99.99,,,0.00,Acu-Link.com,2013-06-14 04:00:00,
2013-06-14 00:15:00,66.4,65.8,29.74,ESE,112,1.7,-999.0,98,-99.99,,,0.00,Acu-Link.com,2013-06-14 04:15:00,
2013-06-14 00:31:00,65.7,65.1,29.75,ESE,112,5.3,-999.0,98,-99.99,,,0.00,Acu-Link.com,2013-06-14 04:31:00,
2013-06-14 00:46:00,65.3,64.7,29.75,NNW,337,3.2,-999.0,98,-99.99,,,0.00,Acu-Link.com,2013-06-14 04:46:00,
2013-06-14 01:01:00,64.9,64.3,29.75,NNW,337,2.2,-999.0,98,-99.99,,,0.00,Acu-Link.com,2013-06-14 05:01:00,
2013-06-14 01:16:00,64.6,64.0,29.75,NNW,337,3.7,-999.0,98,-99.99,,,0.00,Acu-Link.com,2013-06-14 05:16:00,
2013-06-14 01:32:00,64.4,63.8,29.75,WSW,247,0.0,-999.0,98,-99.99,,,0.00,Acu-Link.com,2013-06-14 05:32:00,
2013-06-14 01:47:00,64.4,63.8,29.76,WNW,292,3.2,-999.0,98,-99.99,,,0.00,Acu-Link.com,2013-06-14 05:47:00,
2013-06-14 02:02:00,64.4,63.8,29.76,WSW,247,1.7,-999.0,98,-99.99,,,0.00,Acu-Link.com,2013-06-14 06:02:00,
2013-06-14 02:17:00,64.2,63.6,29.75,NW,315,4.7,-999.0,98,-99.99,,,0.00,Acu-Link.com,2013-06-14 06:17:00,
2013-06-14 02:33:00,63.3,62.7,29.75,NW,315,5.3,-999.0,98,-99.99,,,0.00,Acu-Link.com,2013-06-14 06:33:00,
2013-06-14 02:48:00,62.4,61.8,29.76,WNW,292,3.7,-999.0,98,-99.99,,,0.00,Acu-Link.com,2013-06-14 06:48:00,
2013-06-14 03:03:00,61.5,60.9,29.76,NW,315,2.7,-999.0,98,-99.99,,,0.00,Acu-Link.com,2013-06-14 07:03:00,
2013-06-14 03:19:00,61.0,60.4,29.77,WNW,292,1.7,-999.0,98,-99.99,,,0.00,Acu-Link.com,2013-06-14 07:19:00,
2013-06-14 03:34:00,60.3,59.7,29.77,WNW,292,1.1,-999.0,98,-99.99,,,0.00,Acu-Link.com,2013-06-14 07:34:00,
2013-06-14 03:49:00,59.0,58.4,29.78,WSW,247,0.0,-999.0,98,-99.99,,,0.00,Acu-Link.com,2013-06-14 07:49:00,
2013-06-14 04:04:00,58.1,57.5,29.77,NW,315,1.1,-999.0,98,-99.99,,,0.00,Acu-Link.com,2013-06-14 08:04:00,
2013-06-14 04:20:00,58.1,57.5,29.77,WNW,292,0.0,-999.0,98,-99.99,,,0.00,Acu-Link.com,2013-06-14 08:20:00,
2013-06-14 04:36:00,57.4,56.8,29.76,WNW,292,0.0,-999.0,98,-99.99,,,0.00,Acu-Link.com,2013-06-14 08:36:00,
2013-06-14 04:51:00,57.4,56.8,29.75,WNW,292,2.7,-999.0,98,-99.99,,,0.00,Acu-Link.com,2013-06-14 08:51:00,
2013-06-14 05:06:00,57.7,57.1,29.73,NNW,337,7.8,-999.0,98,-99.99,,,0.00,Acu-Link.com,2013-06-14 09:06:00,
2013-06-14 05:21:00,59.0,58.4,29.73,WNW,292,5.8,-999.0,98,-99.99,,,0.00,Acu-Link.com,2013-06-14 09:21:00,
2013-06-14 05:36:00,59.0,58.4,29.74,WNW,292,5.8,-999.0,98,-99.99,,,0.00,Acu-Link.com,2013-06-14 09:36:00,
2013-06-14 05:52:00,58.8,58.2,29.76,ESE,112,2.7,-999.0,98,-99.99,,,0.00,Acu-Link.com,2013-06-14 09:52:00,
2013-06-14 06:07:00,58.5,57.9,29.77,NNW,337,2.7,-999.0,98,-99.99,,,0.00,Acu-Link.com,2013-06-14 10:07:00,
2013-06-14 06:22:00,58.1,57.5,29.78,NNE,22,2.2,-999.0,98,-99.99,,,0.00,Acu-Link.com,2013-06-14 10:22:00,
2013-06-14 06:37:00,57.9,57.3,29.80,WNW,292,2.7,-999.0,98,-99.99,,,0.00,Acu-Link.com,2013-06-14 10:37:00,
2013-06-14 06:52:00,58.8,58.2,29.80,NW,315,4.7,-999.0,98,-99.99,,,0.00,Acu-Link.com,2013-06-14 10:52:00,
2013-06-14 07:07:00,60.1,59.5,29.78,NNW,337,6.3,-999.0,98,-99.99,,,0.00,Acu-Link.com,2013-06-14 11:07:00,
2013-06-14 07:22:00,60.4,59.8,29.78,NNW,337,10.4,-999.0,98,-99.99,,,0.00,Acu-Link.com,2013-06-14 11:22:00,
2013-06-14 07:37:00,61.2,60.9,29.79,NW,315,1.1,-999.0,99,-99.99,,,0.00,Acu-Link.com,2013-06-14 11:37:00,
2013-06-14 07:52:00,63.9,63.6,29.79,NNW,337,3.7,-999.0,99,-99.99,,,0.00,Acu-Link.com,2013-06-14 11:52:00,
2013-06-14 08:08:00,66.9,66.6,29.81,WNW,292,4.2,-999.0,99,-99.99,,,0.00,Acu-Link.com,2013-06-14 12:08:00,
2013-06-14 08:23:00,68.5,68.2,29.81,NNW,337,3.2,-999.0,99,-99.99,,,0.00,Acu-Link.com,2013-06-14 12:23:00,
2013-06-14 08:38:00,70.3,70.0,29.81,North,0,3.7,-999.0,99,-99.99,,,0.00,Acu-Link.com,2013-06-14 12:38:00,
2013-06-14 08:53:00,71.6,71.3,29.82,WNW,292,4.7,-999.0,99,-99.99,,,0.00,Acu-Link.com,2013-06-14 12:53:00,
2013-06-14 09:08:00,69.6,69.3,29.83,NNW,337,4.7,-999.0,99,-99.99,,,0.00,Acu-Link.com,2013-06-14 13:08:00,
2013-06-14 09:24:00,71.2,70.9,29.83,ENE,67,6.3,-999.0,99,-99.99,,,0.00,Acu-Link.com,2013-06-14 13:24:00,
2013-06-14 09:39:00,69.3,69.0,29.83,SE,135,6.8,-999.0,99,-99.99,,,0.00,Acu-Link.com,2013-06-14 13:39:00,
2013-06-14 09:54:00,71.4,71.1,29.84,ENE,67,6.3,-999.0,99,-99.99,,,0.00,Acu-Link.com,2013-06-14 13:54:00,
2013-06-14 10:09:00,69.8,69.5,29.84,NNW,337,5.3,-999.0,99,-99.99,,,0.00,Acu-Link.com,2013-06-14 14:09:00,
2013-06-14 10:24:00,70.3,70.0,29.82,NNW,337,5.3,-999.0,99,-99.99,,,0.00,Acu-Link.com,2013-06-14 14:24:00,
2013-06-14 10:39:00,70.7,70.4,29.83,East,90,6.3,-999.0,99,-99.99,,,0.00,Acu-Link.com,2013-06-14 14:39:00,
2013-06-14 10:55:00,73.6,73.3,29.84,SW,225,4.2,-999.0,99,-99.99,,,0.00,Acu-Link.com,2013-06-14 14:55:00,
2013-06-14 11:10:00,72.7,72.4,29.86,SE,135,3.2,-999.0,99,-99.99,,,0.00,Acu-Link.com,2013-06-14 15:10:00,
2013-06-14 11:25:00,73.8,73.5,29.86,NNW,337,5.8,-999.0,99,-99.99,,,0.00,Acu-Link.com,2013-06-14 15:25:00,
2013-06-14 11:40:00,74.5,74.2,29.84,North,0,3.7,-999.0,99,-99.99,,,0.00,Acu-Link.com,2013-06-14 15:40:00,
2013-06-14 11:55:00,75.2,74.9,29.85,NNE,22,3.2,-999.0,99,-99.99,,,0.00,Acu-Link.com,2013-06-14 15:55:00,
2013-06-14 12:10:00,75.6,75.3,29.84,West,270,2.2,-999.0,99,-99.99,,,0.00,Acu-Link.com,2013-06-14 16:10:00,
2013-06-14 12:25:00,77.0,76.7,29.85,ESE,112,2.7,-999.0,99,-99.99,,,0.00,Acu-Link.com,2013-06-14 16:25:00,
2013-06-14 12:41:00,75.7,75.4,29.86,NNW,337,6.8,-999.0,99,-99.99,,,0.00,Acu-Link.com,2013-06-14 16:41:00,
2013-06-14 12:56:00,75.9,75.6,29.86,NNW,337,5.8,-999.0,99,-99.99,,,0.00,Acu-Link.com,2013-06-14 16:56:00,
2013-06-14 13:11:00,76.1,75.8,29.87,NW,315,5.3,-999.0,99,-99.99,,,0.00,Acu-Link.com,2013-06-14 17:11:00,
2013-06-14 13:26:00,75.9,75.6,29.86,WNW,292,3.2,-999.0,99,-99.99,,,0.00,Acu-Link.com,2013-06-14 17:26:00,
2013-06-14 13:41:00,77.5,77.2,29.86,NE,45,2.7,-999.0,99,-99.99,,,0.00,Acu-Link.com,2013-06-14 17:41:00,
2013-06-14 13:57:00,78.1,77.8,29.87,ESE,112,2.7,-999.0,99,-99.99,,,0.00,Acu-Link.com,2013-06-14 17:57:00,
2013-06-14 14:12:00,78.1,77.8,29.87,NNW,337,5.3,-999.0,99,-99.99,,,0.00,Acu-Link.com,2013-06-14 18:12:00,
2013-06-14 14:27:00,79.0,78.7,29.86,ENE,67,3.2,-999.0,99,-99.99,,,0.00,Acu-Link.com,2013-06-14 18:27:00,
2013-06-14 14:42:00,77.0,76.7,29.86,NE,45,5.8,-999.0,99,-99.99,,,0.00,Acu-Link.com,2013-06-14 18:42:00,
2013-06-14 14:58:00,76.8,76.5,29.86,ESE,112,4.7,-999.0,99,-99.99,,,0.00,Acu-Link.com,2013-06-14 18:58:00,
2013-06-14 15:13:00,77.5,77.2,29.85,South,180,4.7,-999.0,99,-99.99,,,0.00,Acu-Link.com,2013-06-14 19:13:00,
2013-06-14 15:28:00,77.7,77.4,29.87,ENE,67,4.7,-999.0,99,-99.99,,,0.00,Acu-Link.com,2013-06-14 19:28:00,
2013-06-14 15:43:00,78.4,78.1,29.85,NNW,337,5.3,-999.0,99,-99.99,,,0.00,Acu-Link.com,2013-06-14 19:43:00,
2013-06-14 15:59:00,78.1,77.8,29.86,SE,135,2.2,-999.0,99,-99.99,,,0.00,Acu-Link.com,2013-06-14 19:59:00,
2013-06-14 16:14:00,78.1,77.8,29.85,SE,135,3.2,-999.0,99,-99.99,,,0.00,Acu-Link.com,2013-06-14 20:14:00,
2013-06-14 16:29:00,76.5,76.2,29.86,NNW,337,4.2,-999.0,99,-99.99,,,0.00,Acu-Link.com,2013-06-14 20:29:00,
2013-06-14 16:44:00,77.2,76.9,29.85,North,0,4.7,-999.0,99,-99.99,,,0.00,Acu-Link.com,2013-06-14 20:44:00,
2013-06-14 17:00:00,76.6,76.3,29.86,NE,45,4.2,-999.0,99,-99.99,,,0.00,Acu-Link.com,2013-06-14 21:00:00,
2013-06-14 17:15:00,77.0,76.7,29.86,East,90,4.7,-999.0,99,-99.99,,,0.00,Acu-Link.com,2013-06-14 21:15:00,
2013-06-14 17:30:00,79.2,78.9,29.86,ESE,112,4.7,-999.0,99,-99.99,,,0.00,Acu-Link.com,2013-06-14 21:30:00,
2013-06-14 17:45:00,80.2,79.9,29.85,SE,135,3.2,-999.0,99,-99.99,,,0.00,Acu-Link.com,2013-06-14 21:45:00,
2013-06-14 18:01:00,81.7,81.4,29.86,East,90,5.3,-999.0,99,-99.99,,,0.00,Acu-Link.com,2013-06-14 22:01:00,
2013-06-14 18:16:00,77.9,77.6,29.87,NNW,337,2.7,-999.0,99,-99.99,,,0.00,Acu-Link.com,2013-06-14 22:16:00,
2013-06-14 18:31:00,77.4,77.1,29.87,NNW,337,5.3,-999.0,99,-99.99,,,0.00,Acu-Link.com,2013-06-14 22:31:00,
2013-06-14 18:46:00,76.8,76.5,29.86,ENE,67,2.7,-999.0,99,-99.99,,,0.00,Acu-Link.com,2013-06-14 22:46:00,
2013-06-14 19:02:00,74.1,73.8,29.87,NNW,337,3.7,-999.0,99,-99.99,,,0.00,Acu-Link.com,2013-06-14 23:02:00,
2013-06-14 19:17:00,71.6,71.3,29.88,ENE,67,2.2,-999.0,99,-99.99,,,0.00,Acu-Link.com,2013-06-14 23:17:00,
2013-06-14 19:32:00,69.8,69.5,29.88,NW,315,2.2,-999.0,99,-99.99,,,0.00,Acu-Link.com,2013-06-14 23:32:00,
2013-06-14 19:48:00,68.7,68.4,29.88,West,270,1.7,-999.0,99,-99.99,,,0.00,Acu-Link.com,2013-06-14 23:48:00,
2013-06-14 20:03:00,68.2,67.9,29.88,NE,45,3.7,-999.0,99,-99.99,,,0.00,Acu-Link.com,2013-06-15 00:03:00,
2013-06-14 20:18:00,67.5,67.2,29.89,WNW,292,2.7,-999.0,99,-99.99,,,0.00,Acu-Link.com,2013-06-15 00:18:00,
2013-06-14 20:33:00,66.9,66.6,29.89,North,0,2.7,-999.0,99,-99.99,,,0.00,Acu-Link.com,2013-06-15 00:33:00,
2013-06-14 20:49:00,66.4,66.1,29.89,NNW,337,3.7,-999.0,99,-99.99,,,0.00,Acu-Link.com,2013-06-15 00:49:00,
2013-06-14 21:04:00,65.8,65.5,29.89,WNW,292,2.7,-999.0,99,-99.99,,,0.00,Acu-Link.com,2013-06-15 01:04:00,
2013-06-14 21:19:00,65.5,65.2,29.89,NNW,337,3.7,-999.0,99,-99.99,,,0.00,Acu-Link.com,2013-06-15 01:19:00,
2013-06-14 21:34:00,65.3,65.0,29.90,NW,315,2.7,-999.0,99,-99.99,,,0.00,Acu-Link.com,2013-06-15 01:34:00,
2013-06-14 21:49:00,65.1,64.8,29.92,NW,315,2.7,-999.0,99,-99.99,,,0.00,Acu-Link.com,2013-06-15 01:49:00,
2013-06-14 22:05:00,64.8,64.5,29.93,NNW,337,3.7,-999.0,99,-99.99,,,0.00,Acu-Link.com,2013-06-15 02:05:00,
2013-06-14 22:20:00,64.6,64.3,29.93,NNW,337,3.7,-999.0,99,-99.99,,,0.00,Acu-Link.com,2013-06-15 02:20:00,
2013-06-14 22:35:00,64.0,63.7,29.93,WNW,292,3.7,-999.0,99,-99.99,,,0.00,Acu-Link.com,2013-06-15 02:35:00,
2013-06-14 22:51:00,63.3,63.0,29.94,NW,315,0.0,-999.0,99,-99.99,,,0.00,Acu-Link.com,2013-06-15 02:51:00,
2013-06-14 23:06:00,63.0,62.7,29.94,NNW,337,2.7,-999.0,99,-99.99,,,0.00,Acu-Link.com,2013-06-15 03:06:00,
2013-06-14 23:21:00,63.0,62.7,29.94,NNW,337,2.7,-999.0,99,-99.99,,,0.00,Acu-Link.com,2013-06-15 03:21:00,
2013-06-14 23:37:00,62.8,62.5,29.94,WNW,292,2.2,-999.0,99,-99.99,,,0.00,Acu-Link.com,2013-06-15 03:37:00,
2013-06-14 23:52:00,62.1,61.8,29.95,NW,315,1.7,-999.0,99,-99.99,,,0.00,Acu-Link.com,2013-06-15 03:52:00,